Powrót do katalogu

STARLINK-32223

AktywnyŁącznośćVLEO
NORAD 60373·PAYLOAD·🇺🇸 United States

Wystrzelony Aug 4, 2024 z Vandenberg Space Force Base

Loading…

Następne Przeloty (najbliższe 24 godziny)

TLE

ŚwieżeSource: CelesTrak SupGP

Epoka: Sep 14, 2026, 22:59 UTC

1 60373C 24138U   26257.95812500 -.00080222  00000+0 -25797-2 0  2573
2 60373  53.1573 149.3400 0001314  86.3661 193.2935 15.31742322    18

Śledź STARLINK-32223 w czasie rzeczywistym z AllMySat

Download on the App Store